TimeCST,TemperatureF,Dew PointF,Humidity,Sea Level PressureIn,VisibilityMPH,Wind Direction,Wind SpeedMPH,Gust SpeedMPH,PrecipitationIn,Events,Conditions,WindDirDegrees,DateUTC
12:54 AM,36.0,33.1,89,30.29,10.0,Calm,Calm,-,N/A,,Clear,0,2013-12-18 06:54:00
1:54 AM,36.0,34.0,93,30.29,10.0,Calm,Calm,-,N/A,,Clear,0,2013-12-18 07:54:00
2:54 AM,36.0,33.1,89,30.30,10.0,Calm,Calm,-,N/A,,Clear,0,2013-12-18 08:54:00
3:54 AM,34.0,32.0,92,30.31,10.0,Calm,Calm,-,N/A,,Clear,0,2013-12-18 09:54:00
4:54 AM,35.1,32.0,89,30.31,10.0,Calm,Calm,-,N/A,,Clear,0,2013-12-18 10:54:00
5:24 AM,32.0,30.2,93,30.31,1.8,Calm,Calm,-,N/A,,Clear,0,2013-12-18 11:24:00
5:37 AM,33.8,30.2,87,30.32,3.0,Calm,Calm,-,N/A,,Clear,0,2013-12-18 11:37:00
5:54 AM,33.1,30.9,92,30.32,8.0,Calm,Calm,-,N/A,,Clear,0,2013-12-18 11:54:00
6:54 AM,33.1,30.9,92,30.34,8.0,Calm,Calm,-,N/A,,Clear,0,2013-12-18 12:54:00
7:54 AM,35.1,33.1,92,30.35,10.0,Calm,Calm,-,N/A,,Clear,0,2013-12-18 13:54:00
8:54 AM,50.0,37.0,61,30.36,10.0,ESE,8.1,-,N/A,,Clear,120,2013-12-18 14:54:00
9:54 AM,55.0,34.0,45,30.37,10.0,ESE,8.1,-,N/A,,Clear,120,2013-12-18 15:54:00
10:54 AM,57.9,33.1,39,30.35,10.0,ESE,6.9,-,N/A,,Clear,110,2013-12-18 16:54:00
11:54 AM,61.0,35.1,38,30.32,10.0,SSE,6.9,-,N/A,,Clear,150,2013-12-18 17:54:00
12:54 PM,64.0,35.1,34,30.29,10.0,Variable,3.5,-,N/A,,Clear,0,2013-12-18 18:54:00
1:54 PM,64.9,34.0,32,30.26,10.0,South,5.8,-,N/A,,Clear,170,2013-12-18 19:54:00
2:54 PM,66.0,34.0,30,30.25,10.0,SSE,5.8,-,N/A,,Clear,160,2013-12-18 20:54:00
3:54 PM,64.9,35.1,33,30.24,10.0,SSE,6.9,-,N/A,,Clear,160,2013-12-18 21:54:00
4:54 PM,57.0,36.0,45,30.23,10.0,SE,5.8,-,N/A,,Clear,140,2013-12-18 22:54:00
5:54 PM,50.0,37.0,61,30.23,10.0,SE,5.8,-,N/A,,Clear,140,2013-12-18 23:54:00
6:54 PM,48.0,37.0,66,30.23,10.0,SSE,6.9,-,N/A,,Clear,150,2013-12-19 00:54:00
7:54 PM,48.9,37.0,64,30.23,10.0,SSE,6.9,-,N/A,,Clear,160,2013-12-19 01:54:00
8:54 PM,46.0,37.0,71,30.22,10.0,SSE,8.1,-,N/A,,Clear,160,2013-12-19 02:54:00
9:54 PM,45.0,36.0,71,30.22,10.0,SSE,8.1,-,N/A,,Clear,150,2013-12-19 03:54:00
10:54 PM,45.0,36.0,71,30.22,10.0,South,6.9,-,N/A,,Clear,180,2013-12-19 04:54:00
11:54 PM,39.9,34.0,79,30.21,10.0,SSE,8.1,-,N/A,,Clear,160,2013-12-19 05:54:00